User: anonymous   Login
Location: Unspecified
(0.0000°N, 0.0000°E)
Time: 06:49:03
(UTC+00:00)
Language:

CZ-3B DEB - Orbit

View from above orbital plane
View from above orbital plane
View from above satellite
View from above satellite

Ground track
Ground track

The orbit data is extracted from the following two-line orbital elements,

1 40186U 11077K   20093.42026619 -.00000010 +00000-0 +00000-0 0  9991
2 40186 025.9444 295.5254 7334092 015.4870 142.1281 01.88722042056312
Epoch (UTC): 02 April 2020 10:05:10
Eccentricity: 0.7334092
inclination: 25.9444°
perigee height: 996 km
apogee height: 41567 km
right ascension of ascending node: 295.5254°
argument of perigee: 15.4870°
revolutions per day: 1.88722042
mean anomaly at epoch: 142.1281°
orbit number at epoch: 5631

The dashed part of the orbit path shows where the satellite is in the earth's shadow,  

DLR